IBE09KB LEMD-LDSP

Flight info

Callsign IBE09KB
Flight time N/A
Altitude 35000
Route PINAR N870 PONEN/N0434F370 N870 SEROX/N0434F380 N870 BCN N725 OSPOK/N0431F370 DCT NOLVI DCT ORKUM/N0433F380 DCT ELSAG DCT ALG DCT VAPUP
Aircraft A320/M-SDE1FGHIJ1RWY/SB1

Departure

Time 2026-05-08 08:35
Airport Adolfo Suárez Madrid–Barajas Airport (LEMD)

Arrival

Time N/A
Airport Split Saint Jerome Airport (LDSP)
Time Latitude Longitude Altitude Speed Heading
2026-05-08 08:10 40.48798 -3.58961 2032 ft 0 kts 271°
2026-05-08 08:24 40.48798 -3.58939 2031 ft 4 kts 266°
2026-05-08 08:24 40.48803 -3.58905 2030 ft 4 kts 247°
2026-05-08 08:24 40.48817 -3.58880 2028 ft 4 kts 196°
2026-05-08 08:25 40.48824 -3.58877 2032 ft 0 kts 180°
2026-05-08 08:26 40.48806 -3.58878 2031 ft 4 kts 180°
2026-05-08 08:27 40.48765 -3.58858 2030 ft 8 kts 135°
2026-05-08 08:27 40.48759 -3.58771 2022 ft 12 kts 89°
2026-05-08 08:27 40.48759 -3.58643 2022 ft 16 kts 90°
2026-05-08 08:27 40.48759 -3.58486 2018 ft 19 kts 90°
2026-05-08 08:28 40.48760 -3.58308 2012 ft 19 kts 90°
2026-05-08 08:28 40.48761 -3.58141 2006 ft 14 kts 89°
2026-05-08 08:28 40.48811 -3.58050 2003 ft 14 kts
2026-05-08 08:28 40.48857 -3.57951 1999 ft 17 kts 89°
2026-05-08 08:29 40.48857 -3.57779 1993 ft 21 kts 90°
2026-05-08 08:29 40.48857 -3.57592 1990 ft 20 kts 89°
2026-05-08 08:29 40.48859 -3.57402 1986 ft 21 kts 89°
2026-05-08 08:29 40.48860 -3.57201 1983 ft 23 kts 90°
2026-05-08 08:30 40.48860 -3.56991 1979 ft 23 kts 90°
2026-05-08 08:30 40.48861 -3.56789 1975 ft 21 kts 90°
2026-05-08 08:30 40.48862 -3.56400 1966 ft 24 kts 89°
2026-05-08 08:31 40.48897 -3.56246 1962 ft 17 kts 17°
2026-05-08 08:31 40.49021 -3.56244 1962 ft 18 kts 360°
2026-05-08 08:31 40.49152 -3.56244 1964 ft 19 kts 359°
2026-05-08 08:31 40.49291 -3.56246 1961 ft 20 kts 359°
2026-05-08 08:32 40.49436 -3.56247 1961 ft 21 kts
2026-05-08 08:32 40.49588 -3.56248 1961 ft 22 kts 360°
2026-05-08 08:32 40.49747 -3.56249 1961 ft 23 kts
2026-05-08 08:32 40.49899 -3.56250 1961 ft 20 kts 358°
2026-05-08 08:33 40.50015 -3.56237 1962 ft 16 kts 46°
2026-05-08 08:33 40.50028 -3.56103 1958 ft 11 kts 90°
2026-05-08 08:33 40.50043 -3.56003 1960 ft 11 kts 62°
2026-05-08 08:33 40.50113 -3.55924 1960 ft 17 kts 19°
2026-05-08 08:34 40.50335 -3.55921 1962 ft 62 kts 358°
2026-05-08 08:34 40.51001 -3.55927 1961 ft 124 kts 359°
2026-05-08 08:34 40.52025 -3.55937 1958 ft 171 kts 358°
2026-05-08 08:34 40.53232 -3.55947 2538 ft 170 kts
2026-05-08 08:35 40.54415 -3.55881 3198 ft 173 kts 12°
2026-05-08 08:35 40.55579 -3.55391 3819 ft 178 kts 21°
2026-05-08 08:35 40.56756 -3.54823 4430 ft 182 kts 22°
2026-05-08 08:35 40.57988 -3.54263 4829 ft 197 kts 18°
2026-05-08 08:36 40.59348 -3.53621 5033 ft 219 kts 30°
2026-05-08 08:36 40.60638 -3.52386 5264 ft 242 kts 41°
2026-05-08 08:36 40.62000 -3.50899 5626 ft 266 kts 41°
2026-05-08 08:36 40.63459 -3.49273 6179 ft 281 kts 41°
2026-05-08 08:37 40.64966 -3.47582 6933 ft 287 kts 42°
2026-05-08 08:37 40.66494 -3.45856 7709 ft 291 kts 45°
2026-05-08 08:37 40.67731 -3.43757 8464 ft 291 kts 66°
2026-05-08 08:37 40.68632 -3.41353 9282 ft 294 kts 67°
2026-05-08 08:38 40.69526 -3.38921 10090 ft 297 kts 68°
2026-05-08 08:38 40.70448 -3.36390 10433 ft 317 kts 68°
2026-05-08 08:38 40.71430 -3.33672 10695 ft 338 kts 67°
2026-05-08 08:38 40.72459 -3.30838 11271 ft 346 kts 67°
2026-05-08 08:39 40.73513 -3.27954 11971 ft 350 kts 67°
2026-05-08 08:39 40.74576 -3.25049 12683 ft 354 kts 67°
2026-05-08 08:39 40.75653 -3.22101 13395 ft 358 kts 67°
2026-05-08 08:39 40.76739 -3.19124 14048 ft 362 kts 67°
2026-05-08 08:40 40.77834 -3.16112 14645 ft 366 kts 67°
2026-05-08 08:40 40.78940 -3.13064 15235 ft 370 kts 67°
2026-05-08 08:40 40.80056 -3.09982 15829 ft 375 kts 67°
2026-05-08 08:40 40.81186 -3.06862 16409 ft 379 kts 68°
2026-05-08 08:41 40.82329 -3.03704 16955 ft 384 kts 68°
2026-05-08 08:41 40.83484 -3.00507 17505 ft 388 kts 68°
2026-05-08 08:41 40.84648 -2.97272 18058 ft 393 kts 68°
2026-05-08 08:41 40.85827 -2.93995 18551 ft 397 kts 68°
2026-05-08 08:42 40.87019 -2.90686 19041 ft 401 kts 68°
2026-05-08 08:42 40.88224 -2.87346 19542 ft 403 kts 68°
2026-05-08 08:42 40.89431 -2.83996 20045 ft 406 kts 69°
2026-05-08 08:42 40.90652 -2.80603 20501 ft 410 kts 69°
2026-05-08 08:43 40.91874 -2.77189 20949 ft 413 kts 69°
2026-05-08 08:43 40.93110 -2.73727 21403 ft 417 kts 69°
2026-05-08 08:43 40.94352 -2.70244 21847 ft 421 kts 69°
2026-05-08 08:43 40.95602 -2.66733 22260 ft 424 kts 69°
2026-05-08 08:44 40.96868 -2.63167 22621 ft 430 kts 70°
2026-05-08 08:44 40.98100 -2.59556 23007 ft 432 kts 73°
2026-05-08 08:44 40.98783 -2.57070 23286 ft 432 kts 77°
2026-05-08 08:44 40.99631 -2.53252 23661 ft 433 kts 81°
2026-05-08 08:45 41.00331 -2.49380 24030 ft 434 kts 83°
2026-05-08 08:45 41.00968 -2.45462 24432 ft 435 kts 84°
2026-05-08 08:45 41.01598 -2.41544 24830 ft 436 kts 83°
2026-05-08 08:45 41.02263 -2.37613 25223 ft 438 kts 82°
2026-05-08 08:46 41.02971 -2.33688 25611 ft 440 kts 82°
2026-05-08 08:46 41.03720 -2.29748 25999 ft 441 kts 81°
2026-05-08 08:46 41.04486 -2.25807 26289 ft 445 kts 81°
2026-05-08 08:46 41.05261 -2.21819 26584 ft 448 kts 81°
2026-05-08 08:47 41.06033 -2.17813 26943 ft 450 kts 81°
2026-05-08 08:47 41.06797 -2.13791 27298 ft 451 kts 81°
2026-05-08 08:47 41.07556 -2.09745 27666 ft 452 kts 81°
2026-05-08 08:47 41.08310 -2.05697 28021 ft 454 kts 81°
2026-05-08 08:48 41.09065 -2.01630 28383 ft 455 kts 81°
2026-05-08 08:48 41.09822 -1.97548 28744 ft 456 kts 81°
2026-05-08 08:48 41.10578 -1.93464 29079 ft 457 kts 81°
2026-05-08 08:48 41.11339 -1.89362 29363 ft 459 kts 80°
2026-05-08 08:49 41.12100 -1.85234 29561 ft 464 kts 80°
2026-05-08 08:49 41.12868 -1.81058 29776 ft 467 kts 80°
2026-05-08 08:49 41.13643 -1.76860 30054 ft 469 kts 80°
2026-05-08 08:49 41.14421 -1.72649 30310 ft 471 kts 80°
2026-05-08 08:50 41.15199 -1.68415 30541 ft 473 kts 80°
2026-05-08 08:50 41.15964 -1.64226 30775 ft 474 kts 81°
2026-05-08 08:50 41.16750 -1.59914 31034 ft 475 kts 80°
2026-05-08 08:50 41.17526 -1.55658 31377 ft 474 kts 81°
2026-05-08 08:51 41.18285 -1.51467 31687 ft 473 kts 81°
2026-05-08 08:51 41.19060 -1.47162 31930 ft 474 kts 81°
2026-05-08 08:51 41.19829 -1.42895 32215 ft 475 kts 81°
2026-05-08 08:51 41.20587 -1.38693 32513 ft 474 kts 81°
2026-05-08 08:52 41.21355 -1.34435 32824 ft 474 kts 81°
2026-05-08 08:52 41.22121 -1.30180 33147 ft 473 kts 81°
2026-05-08 08:52 41.22887 -1.25935 33478 ft 473 kts 81°
2026-05-08 08:52 41.23650 -1.21690 33792 ft 472 kts 81°
2026-05-08 08:53 41.24411 -1.17442 34085 ft 472 kts 82°
2026-05-08 08:53 41.25167 -1.13210 34321 ft 472 kts 82°
2026-05-08 08:53 41.25923 -1.08953 34458 ft 475 kts 82°
2026-05-08 08:53 41.26676 -1.04668 34637 ft 476 kts 82°
2026-05-08 08:54 41.27433 -1.00378 34848 ft 477 kts 82°
2026-05-08 08:54 41.28195 -0.96078 35068 ft 478 kts 81°
2026-05-08 08:54 41.28955 -0.91787 35290 ft 478 kts 81°
2026-05-08 08:54 41.29714 -0.87483 35507 ft 478 kts 81°
2026-05-08 08:55 41.30469 -0.83174 35715 ft 478 kts 82°
2026-05-08 08:55 41.31218 -0.78864 35909 ft 479 kts 82°
2026-05-08 08:55 41.31965 -0.74545 36059 ft 479 kts 81°
2026-05-08 08:55 41.32711 -0.70222 36188 ft 481 kts 81°
2026-05-08 08:56 41.33463 -0.65872 36339 ft 482 kts 81°
2026-05-08 08:56 41.34216 -0.61519 36512 ft 483 kts 81°
2026-05-08 08:56 41.34951 -0.57165 36719 ft 482 kts 84°
2026-05-08 08:56 41.35343 -0.52769 36910 ft 476 kts 92°
2026-05-08 08:57 41.35352 -0.48380 37085 ft 474 kts 95°
2026-05-08 08:57 41.35319 -0.43991 37263 ft 474 kts 95°
2026-05-08 08:57 41.35287 -0.39595 37437 ft 475 kts 95°
2026-05-08 08:57 41.35255 -0.35205 37608 ft 475 kts 95°
2026-05-08 08:58 41.35219 -0.30804 37784 ft 475 kts 95°
2026-05-08 08:58 41.35183 -0.26410 37963 ft 475 kts 95°
2026-05-08 08:58 41.35107 -0.17609 38003 ft 476 kts 95°
2026-05-08 08:59 41.35021 -0.08863 38000 ft 476 kts 96°
2026-05-08 08:59 41.34926 -0.00006 37985 ft 476 kts 95°
2026-05-08 09:00 41.34836 0.08761 38011 ft 477 kts 95°
2026-05-08 09:00 41.34735 0.17605 38012 ft 478 kts 96°
2026-05-08 09:01 41.34622 0.26454 38012 ft 479 kts 96°
2026-05-08 09:01 41.34500 0.35315 38015 ft 479 kts 96°
2026-05-08 09:02 41.34360 0.44178 37991 ft 479 kts 96°
2026-05-08 09:02 41.34224 0.53055 37995 ft 480 kts 96°
2026-05-08 09:03 41.34090 0.61947 38003 ft 481 kts 96°
2026-05-08 09:03 41.33942 0.70852 38009 ft 481 kts 96°
2026-05-08 09:04 41.33791 0.79756 37988 ft 482 kts 95°
2026-05-08 09:04 41.33630 0.88680 38000 ft 483 kts 96°
2026-05-08 09:05 41.33459 0.97613 38012 ft 484 kts 96°
2026-05-08 09:05 41.33286 1.06553 38016 ft 484 kts 96°
2026-05-08 09:06 41.33102 1.15509 38005 ft 484 kts 95°
2026-05-08 09:06 41.32916 1.24459 38013 ft 484 kts 95°
2026-05-08 09:07 41.32713 1.33421 38019 ft 485 kts 96°
2026-05-08 09:07 41.32508 1.42392 38026 ft 485 kts 96°
2026-05-08 09:08 41.32300 1.51359 38028 ft 485 kts 95°
2026-05-08 09:08 41.32086 1.60330 38007 ft 486 kts 96°
2026-05-08 09:09 41.31858 1.69321 38006 ft 486 kts 96°
2026-05-08 09:09 41.31623 1.78315 38011 ft 487 kts 96°
2026-05-08 09:10 41.31378 1.87312 38016 ft 487 kts 96°
2026-05-08 09:10 41.31129 1.96317 38041 ft 487 kts 96°
2026-05-08 09:11 41.30871 2.05330 38045 ft 488 kts 96°
2026-05-08 09:11 41.30156 2.14248 38048 ft 482 kts 107°
2026-05-08 09:12 41.28720 2.22957 38049 ft 482 kts 107°
2026-05-08 09:12 41.27279 2.31664 38026 ft 483 kts 107°
2026-05-08 09:13 41.25832 2.40386 38017 ft 484 kts 107°
2026-05-08 09:13 41.24370 2.49121 38017 ft 485 kts 107°
2026-05-08 09:14 41.22907 2.57802 38025 ft 485 kts 107°
2026-05-08 09:14 41.21421 2.66606 38033 ft 485 kts 107°
2026-05-08 09:15 41.19944 2.75303 38020 ft 487 kts 107°
2026-05-08 09:15 41.18453 2.84073 38010 ft 488 kts 107°
2026-05-08 09:16 41.16957 2.92870 38025 ft 489 kts 107°
2026-05-08 09:16 41.15450 3.01668 38037 ft 489 kts 107°
2026-05-08 09:17 41.13930 3.10475 38027 ft 490 kts 108°
2026-05-08 09:17 41.12398 3.19286 38029 ft 491 kts 108°
2026-05-08 09:18 41.10852 3.28124 38028 ft 492 kts 108°
2026-05-08 09:18 41.09301 3.36963 38040 ft 492 kts 108°
2026-05-08 09:19 41.07745 3.45800 38015 ft 493 kts 108°
2026-05-08 09:19 41.06180 3.54646 38033 ft 493 kts 108°
2026-05-08 09:20 41.04604 3.63483 38046 ft 493 kts 108°
2026-05-08 09:20 41.03028 3.72321 38051 ft 493 kts 108°
2026-05-08 09:21 41.01448 3.81155 38049 ft 493 kts 108°
2026-05-08 09:23 40.95817 4.12129 38045 ft 495 kts 108°
2026-05-08 09:23 40.94187 4.20987 38039 ft 496 kts 108°
2026-05-08 09:24 40.92553 4.29860 38032 ft 497 kts 108°
2026-05-08 09:24 40.90909 4.38750 38031 ft 498 kts 108°
2026-05-08 09:25 40.89261 4.47590 38034 ft 499 kts 109°
2026-05-08 09:25 40.87593 4.56492 38043 ft 499 kts 108°
2026-05-08 09:26 40.85929 4.65414 38029 ft 501 kts 106°
2026-05-08 09:26 40.84963 4.74582 38031 ft 506 kts 100°
2026-05-08 09:27 40.84121 4.83807 38039 ft 506 kts 100°
2026-05-08 09:27 40.83258 4.93039 38046 ft 507 kts 101°
2026-05-08 09:28 40.82384 5.02277 38040 ft 508 kts 101°
2026-05-08 09:28 40.81502 5.11531 38040 ft 509 kts 101°
2026-05-08 09:29 40.80622 5.20796 38042 ft 509 kts 101°
2026-05-08 09:29 40.79724 5.30079 38048 ft 510 kts 101°
2026-05-08 09:30 40.78825 5.39354 38035 ft 510 kts 100°
2026-05-08 09:30 40.77907 5.48650 38017 ft 511 kts 101°
2026-05-08 09:31 40.76984 5.57958 38020 ft 512 kts 101°
2026-05-08 09:31 40.76206 5.65702 38031 ft 512 kts 101°
2026-05-08 09:32 40.75263 5.75025 38028 ft 513 kts 101°
2026-05-08 09:32 40.74313 5.84361 38029 ft 514 kts 101°
2026-05-08 09:33 40.73362 5.93705 38034 ft 515 kts 101°
2026-05-08 09:33 40.72412 6.03064 38041 ft 515 kts 101°
2026-05-08 09:34 40.71438 6.12430 38033 ft 516 kts 101°
2026-05-08 09:34 40.70450 6.21801 38035 ft 517 kts 101°
2026-05-08 09:35 40.69453 6.31182 38038 ft 517 kts 101°
2026-05-08 09:35 40.68453 6.40563 38041 ft 517 kts 101°
2026-05-08 09:36 40.67446 6.49951 38046 ft 518 kts 100°
2026-05-08 09:36 40.66422 6.59339 38047 ft 518 kts 100°
2026-05-08 09:37 40.65400 6.68676 38044 ft 518 kts 100°
2026-05-08 09:37 40.64369 6.78072 38047 ft 519 kts 101°
2026-05-08 09:38 40.63323 6.87464 38036 ft 519 kts 100°
2026-05-08 09:38 40.62271 6.96866 38039 ft 519 kts 100°
2026-05-08 09:39 40.61213 7.06261 38047 ft 519 kts 100°
2026-05-08 09:39 40.60149 7.15662 38049 ft 519 kts 101°
2026-05-08 09:40 40.59078 7.25068 38048 ft 520 kts 101°
2026-05-08 09:40 40.57996 7.34465 38048 ft 520 kts 101°
2026-05-08 09:41 40.56899 7.43860 38054 ft 520 kts 99°
2026-05-08 09:41 40.56823 7.53346 38051 ft 521 kts 82°
2026-05-08 09:42 40.57667 7.62818 38045 ft 521 kts 82°
2026-05-08 09:42 40.58480 7.72286 38043 ft 521 kts 83°
2026-05-08 09:43 40.59276 7.81767 38042 ft 521 kts 83°
2026-05-08 09:43 40.60069 7.91254 38048 ft 521 kts 83°
2026-05-08 09:44 40.60859 8.00734 38038 ft 521 kts 82°
2026-05-08 09:44 40.61648 8.10156 38045 ft 521 kts 82°
2026-05-08 09:45 40.62467 8.19624 38073 ft 520 kts 78°
2026-05-08 09:45 40.64513 8.28638 38048 ft 510 kts 60°
2026-05-08 09:46 40.67740 8.36911 38032 ft 507 kts 58°
2026-05-08 09:46 40.70975 8.45177 38040 ft 507 kts 58°
2026-05-08 09:47 40.74185 8.53440 38041 ft 506 kts 58°
2026-05-08 09:47 40.77391 8.61705 38042 ft 506 kts 58°
2026-05-08 09:48 40.80601 8.69963 38058 ft 506 kts 58°
2026-05-08 09:48 40.83795 8.78226 38043 ft 504 kts 58°
2026-05-08 09:49 40.86966 8.86472 38042 ft 503 kts 58°
2026-05-08 09:49 40.90131 8.94713 38042 ft 503 kts 58°
2026-05-08 09:50 40.93292 9.02959 38040 ft 502 kts 58°
2026-05-08 09:50 40.96447 9.11199 38041 ft 502 kts 58°
2026-05-08 09:51 40.99592 9.19450 38024 ft 500 kts 58°
2026-05-08 09:51 41.02699 9.27644 38016 ft 498 kts 58°
2026-05-08 09:52 41.05782 9.35784 38015 ft 498 kts 58°
2026-05-08 09:52 41.08867 9.43941 38031 ft 498 kts 58°
2026-05-08 09:53 41.11968 9.52168 38038 ft 498 kts 58°
2026-05-08 09:53 41.15055 9.60391 38035 ft 498 kts 58°
2026-05-08 09:54 41.18141 9.68627 38046 ft 498 kts 58°
2026-05-08 09:54 41.21220 9.76865 38037 ft 498 kts 58°
2026-05-08 09:55 41.24298 9.85116 38031 ft 498 kts 59°
2026-05-08 09:55 41.27369 9.93362 38040 ft 497 kts 59°
2026-05-08 09:56 41.30423 10.01611 38040 ft 497 kts 59°
2026-05-08 09:56 41.33463 10.09864 38073 ft 497 kts 59°
2026-05-08 09:57 41.38005 10.22208 38015 ft 495 kts 59°
2026-05-08 09:57 41.41025 10.30441 38016 ft 495 kts 59°
2026-05-08 09:58 41.44039 10.38688 38016 ft 495 kts 59°
2026-05-08 09:58 41.47054 10.46941 38020 ft 495 kts 59°
2026-05-08 09:59 41.50063 10.55204 38023 ft 495 kts 59°
2026-05-08 09:59 41.53032 10.63408 38010 ft 493 kts 60°
2026-05-08 10:00 41.56008 10.71638 38015 ft 492 kts 60°
2026-05-08 10:00 41.58980 10.79873 38020 ft 492 kts 60°
2026-05-08 10:01 41.61944 10.88117 38019 ft 492 kts 60°
2026-05-08 10:01 41.64900 10.96367 38017 ft 492 kts 60°
2026-05-08 10:02 41.67852 11.04616 38041 ft 492 kts 62°
2026-05-08 10:02 41.70788 11.12873 38031 ft 491 kts 62°
2026-05-08 10:03 41.73718 11.21113 38026 ft 490 kts 62°
2026-05-08 10:03 41.76636 11.29357 38021 ft 490 kts 62°
2026-05-08 10:04 41.79527 11.37540 38006 ft 489 kts 62°
2026-05-08 10:04 41.82425 11.45777 38002 ft 489 kts 62°
2026-05-08 10:05 41.85321 11.54014 38019 ft 488 kts 63°
2026-05-08 10:05 41.88207 11.62251 38000 ft 487 kts 63°
2026-05-08 10:06 41.91078 11.70479 38019 ft 486 kts 63°
2026-05-08 10:06 41.93940 11.78696 38052 ft 486 kts 63°
2026-05-08 10:07 41.96789 11.86914 38093 ft 485 kts 63°
2026-05-08 10:07 41.99628 11.95139 38135 ft 485 kts 64°
2026-05-08 10:08 42.02468 12.03350 38154 ft 484 kts 64°
2026-05-08 10:08 42.05295 12.11559 38142 ft 483 kts 64°
2026-05-08 10:09 42.08113 12.19773 37978 ft 483 kts 64°
2026-05-08 10:09 42.10908 12.27984 37980 ft 482 kts 64°
2026-05-08 10:10 42.13687 12.36144 37989 ft 483 kts 64°
2026-05-08 10:10 42.16488 12.44364 37981 ft 482 kts 64°
2026-05-08 10:11 42.19274 12.52582 37977 ft 482 kts 64°
2026-05-08 10:11 42.22039 12.60778 37991 ft 482 kts 64°
2026-05-08 10:12 42.24810 12.69014 38005 ft 482 kts 64°
2026-05-08 10:12 42.27581 12.77244 38001 ft 482 kts 64°
2026-05-08 10:13 42.30352 12.85481 38026 ft 482 kts 65°
2026-05-08 10:13 42.33104 12.93732 38019 ft 482 kts 65°
2026-05-08 10:14 42.35845 13.01991 38012 ft 482 kts 65°
2026-05-08 10:14 42.38583 13.10259 38002 ft 481 kts 65°
2026-05-08 10:15 42.41320 13.18524 37984 ft 481 kts 65°
2026-05-08 10:15 42.44054 13.26793 38012 ft 481 kts 65°